Home   Weather   Schaffhausen   Past weeks

Flag for Switzerland Past Weather in Schaffhausen, Schaffhausen, Switzerland — Yesterday and Last 2 Weeks

Now
57 °F

Cool.


Feels Like: 57 °F
Forecast: 53 / 70 °F
Wind: 3 mph from West

Location: Zurich-Kloten

Current Time: Jul 26, 2017 at 11:02:59 am

Latest Report: Jul 26, 2017 at 10:00 am


Visibility: N/A

Pressure: 29.92 "Hg

Humidity: 88%

Dew Point: 54 °F

Location of SchaffhausenLocation

Past Weather in Schaffhausen — Graph

°F

Schaffhausen Temperature Yesterday

Maximum temperature yesterday: 64 °F (at 3:00 pm)
Minimum temperature yesterday: 55 °F (at 9:00 pm)
Average temperature yesterday: 58 °F

High & Low Weather Summary for the Past Weeks

 TemperatureHumidityPressure
High91 °F (Jul 19, 5:00 pm)100% (Jul 21, 6:00 am)30.29 "Hg (Jul 21, 6:00 am)
Low52 °F (Jul 16, 5:00 am)32% (Jul 19, 3:00 pm)29.77 "Hg (Jul 21, 5:00 pm)
Average67 °F71%30.00 "Hg
* Reported Jul 11 9:00 am — Jul 26 9:00 am, Schaffhausen. Weather by CustomWeather, © 2017

Note: Actual official high and low records may vary slightly from our data, if they occured in-between our weather recording intervals... More about our weather records

Advertising

Schaffhausen Weather History for the Previous 24 Hours

Scroll right to see more
 ConditionsComfort  
Time TempWeatherWind HumidityBarometerVisibility
9:00 am
Wed, Jul 26
57 °FCool.5 mph83%29.91 "HgN/A
8:00 am57 °FLight rain. Low clouds.5 mph88%29.89 "Hg6 mi
7:00 am57 °FCool.8 mph88%29.88 "HgN/A
6:00 am56 °FCool.5 mph94%29.87 "HgN/A
5:00 am57 °FLight rain. Overcast.7 mph91%29.86 "Hg12 mi
4:00 am57 °FCool.6 mph92%29.86 "HgN/A
3:00 am56 °FCool.6 mph93%29.87 "HgN/A
2:00 am55 °FOvercast.9 mph94%29.88 "Hg12 mi
1:00 am54 °FCool.3 mph93%29.89 "HgN/A
12:00 am55 °FCool.7 mph90%29.90 "HgN/A
11:00 pm
Tue, Jul 25
55 °FCool.7 mph92%29.90 "HgN/A
10:00 pm55 °FCool.6 mph92%29.90 "HgN/A
9:00 pm55 °FCool.3 mph95%29.90 "HgN/A
8:00 pm60 °FOvercast.6 mph78%29.86 "Hg12 mi
7:00 pm62 °FCool.9 mph73%29.87 "HgN/A
6:00 pm60 °FCool.3 mph83%29.87 "HgN/A
5:00 pm60 °FSprinkles. Overcast.7 mph83%29.88 "Hg12 mi
4:00 pm59 °FCool.6 mph80%29.89 "HgN/A
3:00 pm64 °FMild.12 mph63%29.86 "HgN/A
2:00 pm63 °FSprinkles. Overcast.10 mph72%29.88 "Hg14 mi
1:00 pm60 °FCool.8 mph78%29.90 "HgN/A
12:00 pm60 °FCool.9 mph72%29.90 "HgN/A
11:00 am60 °FOvercast.12 mph76%29.89 "Hg16 mi
Weather by CustomWeather, © 2017

See weather overviewHow to use our weather pages